PROPCUBE 2 (FAUNA) (43052 NORAD) Tracking and Keplerian Element Data

This shows tracking and keplerian element data for the satellite.

Feedback or suggestion? Click here.




ElementValue
Catalog43052
NamePROPCUBE 2 (FAUNA)
Epoch Orbit13040
Epoch Day91.99492812
Epoch Year2020
RAAN84.4202
Inclination51.6378
Eccentricity0.0002613
Argument of Perigee125.1631
Mean Anonmoly234.96
Mean Motion15.4349835
Decay Rate5.058E-05
L11 43052U 17071R 20091.99492812 .00005058 00000-0 12012-3 0 9993
L22 43052 51.6378 84.4202 0002613 125.1631 234.9600 15.43498350130401

Live tracking and technical data element details for PROPCUBE 2 (FAUNA) (NORAD 43052). PROPCUBE 2 (FAUNA) can be tracked NOW for your location showing map with azimuth and elevation plus other details from your city location.

Track the satellite on the map from your city or location and see movement details for azimuth, elevation, latitude, longitude, range, height, and movement on the map or in text.







IsCatalogInMostPopularTable: catalog: 43052, numindb: 341
Update: records affected: 1



GetName: 43052 PROPCUBE 2 (FAUNA)

Hit Count: updated at: Thu, 02 Apr 2020 04:18:13 GMT